Location: Eldred Sherwood Park Lake Dam
(42.9416°N, 93.5655°W)
Time: 08:10:04
(UTC+00:00)

Vanguard 2 Rocket - Pass Details

Date: 10 November 2024
Orbit: 554 x 3296 km, 32.9° (Epoch: 06 December)

Event Time Altitude Azimuth Distance (km) Brightness Sun altitude
Rises 12:15:48 0° 203° (SSW) 5,675 10.9 -8.6°
Reaches altitude 10° 12:19:51 10° 192° (SSW) 5,044 10.7 -7.9°
Maximum altitude 12:32:28 30° 139° (SE) 4,443 11.2 -5.7°
Drops below altitude 10° 12:47:55 10° 89° (E) 6,248 12.5 -3.0°
Sets 12:53:39 0° 80° (E) 7,203 12.6 -2.1°
